Location: Cheching
(60.0667°N, 164.2167°W)
Time: 04:02:51
(UTC+00:00)

AIST 2D - Pass Details

Date: 17 January 2021
Orbit: 450 x 467 km, 97.1° (Epoch: 03 March)

Event Time Altitude Azimuth Distance (km) Brightness Sun altitude
Rises 18:16:39 0° 109° (ESE) 2,511 ? -9.5°
Reaches altitude 10° 18:19:30 10° 82° (E) 1,636 ? -9.2°
Maximum altitude 18:21:19 14° 51° (NE) 1,421 ? -9.0°
Drops below altitude 10° 18:23:08 10° 20° (NNE) 1,638 ? -8.8°
Sets 18:25:59 0° 354° (N) 2,516 ? -8.5°
